Theta_e
304 304 304 304 304 304 304 305 304 304 304 300 296 300 291 288 284 297 304 304 296 290 284 287 285 284 288 291 290 292 290 289 291 290 292 290 294 294 293 292 292 294 293 293 290 291 287 285 283 285 286 287 290 291 293 294 293 292 286 290 290 307 285 284 286 287 290 292 294 295 294 293 290 291 289 288 285 286 284 279 280 281 282 282 281 284 289
303 303 304 304 304 304 304 304 304 304 304 300 300 295 291 292 290 293 302 303 301 289 280 282 282 286 289 289 289 292 291 290 289 290 292 291 292 294 293 294 296 292 296 293 290 293 281 290 285 284 288 286 293 292 292 294 292 290 287 287 294 287 286 286 281 281 282 284 288 287 290 292 287 286 289 289 288 289 288 287 285 283 283 286 283 281 287
303 304 303 304 304 304 304 305 305 304 304 304 299 291 292 291 293 293 295 303 298 286 289 287 284 287 287 288 287 289 290 293 293 292 290 293 292 292 291 292 293 293 295 293 293 294 290 286 291 289 290 290 294 293 292 295 292 294 295 305 296 287 284 284 279 276 275 275 277 279 280 284 286 290 289 290 290 289 288 283 283 281 286 287 284 285 292
303 303 304 304 304 304 304 304 304 304 303 304 300 294 291 289 281 288 292 297 296 292 294 291 288 286 286 285 287 289 288 292 294 295 293 295 294 293 293 292 293 293 292 290 292 292 295 290 289 291 290 293 294 294 293 294 293 300 307 304 296 288 290 286 282 281 280 281 284 289 286 285 284 287 290 291 291 290 288 284 283 281 283 283 289 291 291
304 303 304 303 303 304 304 304 303 303 303 304 299 297 293 292 283 284 284 291 291 289 291 290 291 285 290 283 289 287 288 291 292 300 291 296 295 294 294 293 291 290 290 287 289 292 292 294 292 291 293 294 294 295 294 294 298 309 306 304 293 288 285 289 287 287 286 289 292 295 291 287 287 286 288 288 290 291 288 284 283 286 287 282 292 294 292
304 304 304 303 303 303 303 303 303 303 303 304 301 290 294 285 288 292 293 287 282 284 286 290 288 290 290 285 289 286 287 289 286 293 295 295 296 290 293 294 293 291 289 290 284 289 289 289 286 295 296 295 294 294 299 293 301 309 300 301 294 289 284 289 292 292 296 296 295 296 295 293 291 290 287 289 294 290 287 287 289 290 284 284 292 295 292
304 304 303 303 303 303 303 303 303 303 302 303 299 290 292 293 293 293 297 286 287 287 289 292 289 288 289 287 289 286 286 285 290 290 291 292 290 294 283 289 293 293 294 290 286 288 282 283 290 293 294 294 292 291 293 297 300 300 296 295 292 289 284 292 294 293 294 294 294 296 294 292 294 293 293 293 293 291 292 291 292 290 286 293 294 294 293
304 304 303 303 303 303 303 303 303 303 302 302 298 296 291 291 290 287 294 294 291 291 290 291 289 285 290 285 285 289 288 287 290 292 290 284 288 294 289 291 293 293 295 291 286 291 291 290 286 293 294 290 293 290 293 294 297 296 293 295 292 291 284 294 292 288 290 293 294 295 294 293 291 291 292 292 293 292 292 293 294 295 293 294 294 292 290
304 303 303 303 303 303 303 303 303 302 302 294 296 297 299 298 300 299 292 288 288 290 288 287 286 284 284 283 286 289 288 288 290 290 294 291 289 292 290 293 293 293 293 293 293 295 295 294 294 296 297 291 297 291 292 298 291 294 293 291 293 293 288 291 288 285 285 292 292 292 293 292 291 289 289 289 289 290 290 289 292 293 291 292 292 288 287
303 303 303 303 303 303 303 303 304 303 302 293 293 292 297 297 301 302 296 287 292 286 287 288 285 280 283 288 287 287 289 292 292 284 290 293 294 294 294 294 291 290 291 292 294 297 298 299 300 301 302 301 299 298 300 298 295 293 294 292 290 290 288 283 284 285 282 288 290 289 288 289 286 285 287 289 288 289 290 291 293 295 295 291 288 290 294
303 302 303 303 303 303 303 303 303 304 300 294 292 291 294 294 293 296 295 286 286 290 289 288 286 289 291 293 290 292 291 292 293 286 284 293 294 296 295 293 290 287 290 296 303 303 303 302 304 303 302 302 301 301 301 301 300 298 295 290 290 293 291 284 285 283 282 286 287 288 284 279 281 289 292 292 289 290 290 289 292 292 294 292 295 294 295
303 303 303 302 303 303 304 304 304 304 302 299 298 295 297 300 298 297 288 284 285 291 288 285 286 288 288 291 291 289 289 290 291 295 290 291 294 295 295 294 292 284 295 304 304 303 305 304 304 302 301 300 300 301 301 298 298 299 298 293 290 290 289 284 284 283 283 284 286 282 277 280 289 293 293 293 291 291 290 290 290 291 293 293 293 294 295
302 302 303 303 303 303 304 304 304 304 304 302 301 295 300 302 297 294 292 287 284 287 285 288 292 292 294 294 293 292 293 294 295 295 294 292 292 294 296 294 292 294 305 302 302 300 295 293 295 297 296 296 297 298 298 297 296 298 299 298 292 287 288 283 283 280 283 283 282 278 277 288 292 291 292 294 293 292 293 289 290 290 291 294 293 294 295
303 302 303 303 303 303 303 304 304 304 304 304 300 299 301 301 295 295 294 287 286 290 291 289 292 293 294 294 295 295 295 295 295 295 291 294 292 293 296 299 300 303 304 302 297 293 288 288 284 287 289 289 287 287 293 296 297 296 296 298 296 293 289 287 284 284 283 283 283 283 288 289 289 287 289 290 287 290 289 285 286 291 292 294 293 294 294
303 303 303 303 303 303 303 304 304 304 304 305 303 301 301 302 300 297 299 294 286 288 290 285 291 293 295 295 295 291 291 291 291 290 296 297 295 297 298 302 302 301 305 300 294 291 287 287 284 283 284 283 280 281 291 289 296 298 297 296 296 295 291 287 286 282 283 284 282 284 283 281 285 291 294 296 296 294 293 289 285 292 293 295 294 293 292
302 302 303 303 303 303 303 304 304 305 305 305 302 301 301 303 303 301 298 294 289 284 288 294 296 296 294 295 297 292 289 287 289 291 292 294 298 300 303 303 302 304 303 299 293 287 285 284 283 283 282 283 288 285 282 289 288 295 296 296 295 294 293 289 287 283 283 282 282 282 281 283 289 292 295 297 296 295 294 289 283 289 293 295 295 292 292
302 302 302 303 303 303 303 304 304 305 305 305 301 300 298 302 302 300 298 297 294 287 295 297 296 296 294 294 298 294 295 288 292 286 286 288 294 298 298 301 301 302 301 293 291 285 285 285 284 282 282 288 286 283 289 286 283 286 292 293 292 290 285 286 285 282 281 283 281 280 282 282 288 294 295 296 296 296 290 281 283 290 294 295 294 292 292
301 302 302 302 303 303 303 304 304 305 305 305 303 300 300 303 303 303 300 297 290 290 295 298 298 294 292 293 294 298 301 299 295 294 289 293 295 292 295 298 295 300 301 290 288 283 283 282 283 283 284 292 293 291 282 285 282 282 284 282 281 284 283 284 283 282 282 282 281 282 283 288 292 294 296 295 295 290 280 279 281 292 294 295 294 293 293
301 301 302 302 302 303 303 304 304 305 305 305 304 302 301 303 303 304 301 298 295 288 297 302 302 299 301 304 299 300 300 298 298 288 286 285 291 300 300 299 299 289 295 288 285 283 282 284 287 284 283 286 290 283 288 283 281 288 288 283 283 282 282 285 284 284 283 278 282 282 284 287 295 296 297 296 292 282 282 285 292 294 293 294 294 293 293
301 301 302 302 302 303 303 304 304 305 305 305 304 298 300 303 305 305 301 295 296 294 298 299 301 299 303 300 297 295 296 297 297 290 287 286 294 299 288 287 292 293 289 287 283 284 282 283 283 287 282 283 285 291 283 283 292 289 287 288 282 284 282 282 282 281 280 279 280 281 280 288 297 297 295 296 285 282 286 290 293 295 294 293 293 293 293
301 301 301 302 302 303 303 303 304 305 305 305 304 299 298 303 305 305 305 302 297 291 293 301 303 302 303 301 302 303 299 294 296 294 295 293 296 291 284 284 287 289 286 282 283 283 283 284 286 283 286 286 287 288 283 284 289 295 293 288 286 290 284 281 280 282 281 278 279 281 286 290 297 296 287 291 290 292 292 293 291 293 294 293 293 293 294
300 301 301 302 302 303 303 304 304 304 305 305 304 301 296 301 305 309 309 306 299 293 295 302 304 303 305 306 306 305 302 303 303 305 298 291 297 296 293 298 294 293 293 292 287 286 289 285 289 286 284 286 288 283 285 280 283 289 293 291 285 290 285 285 285 286 281 280 281 288 291 291 292 291 290 291 293 294 294 294 293 292 293 294 293 293 294
300 300 301 301 302 303 303 304 304 304 305 305 303 299 296 298 299 304 308 302 303 303 303 302 304 304 306 307 307 306 306 307 307 305 303 296 288 296 298 295 294 301 300 298 290 289 289 289 284 288 287 288 285 284 287 282 281 285 284 292 289 294 293 290 289 287 291 292 291 292 291 293 293 294 294 294 293 294 295 294 292 293 293 294 293 294 294
300 300 300 301 302 303 303 304 304 305 305 305 304 300 298 299 300 301 303 303 297 293 297 298 296 289 294 297 302 303 303 304 307 307 308 303 290 288 295 299 301 301 297 298 298 292 289 288 291 292 284 289 292 284 284 284 283 287 285 285 288 293 294 291 288 290 287 284 291 291 291 292 293 293 294 294 294 294 294 294 293 294 295 295 295 295 295
300 300 300 301 302 303 303 304 305 305 305 305 305 304 303 300 301 301 299 290 288 290 289 290 291 301 303 302 300 301 303 305 310 311 308 303 300 294 294 300 301 299 296 297 297 293 286 287 290 287 284 291 293 285 290 286 286 290 283 286 287 288 295 289 289 288 284 285 289 291 293 293 293 294 293 293 294 295 295 295 296 296 296 296 295 296 295
300 300 300 301 302 303 304 304 304 305 305 305 305 300 299 298 302 303 301 300 298 295 289 284 293 303 306 304 300 301 304 304 304 305 307 305 304 303 302 303 302 305 300 299 295 289 287 288 286 286 287 289 293 285 286 290 291 290 287 286 290 291 292 284 288 286 290 292 292 292 293 293 292 293 294 295 294 294 295 295 295 295 294 294 295 296 296
299 300 300 301 302 303 303 304 305 305 305 305 303 300 300 300 302 302 299 300 291 283 285 284 289 298 303 300 304 301 303 302 302 302 302 303 304 302 301 299 299 297 297 294 292 287 286 286 285 288 289 290 292 289 290 290 290 286 285 291 294 291 285 291 290 287 287 287 289 293 287 286 290 292 294 294 294 295 294 294 294 294 294 294 294 295 296
299 300 300 301 302 303 303 304 304 304 304 305 304 300 301 300 302 304 305 302 294 285 286 286 289 296 301 298 301 299 301 301 300 300 299 300 301 300 299 298 295 294 292 287 289 288 283 287 289 286 286 288 286 288 289 290 289 287 288 290 293 290 291 291 287 287 287 292 294 293 293 293 293 294 294 294 295 295 294 293 293 294 294 294 294 293 294
299 300 301 301 302 303 303 304 304 304 304 304 300 300 301 303 304 307 305 304 300 296 291 289 292 291 289 293 300 297 299 301 300 298 298 298 299 298 297 297 295 295 291 286 284 284 284 288 286 287 288 292 289 287 284 284 282 283 288 292 292 293 296 294 294 293 293 295 294 295 294 292 293 295 295 295 296 295 294 294 295 294 294 294 294 294 293
299 300 300 301 302 302 303 303 304 304 304 300 297 294 287 296 305 303 302 303 301 300 292 288 287 285 294 298 297 298 299 301 300 299 298 296 297 296 297 295 294 295 293 288 285 286 287 286 283 288 295 294 288 284 282 283 282 286 291 292 294 295 295 295 296 295 292 295 295 295 295 294 295 295 296 296 297 296 294 294 294 294 295 295 295 295 295
299 300 300 301 301 302 303 303 304 304 303 296 294 285 285 284 292 304 303 301 300 299 288 288 289 288 289 295 297 295 298 300 298 298 298 297 296 296 296 295 294 293 287 286 286 288 285 285 285 289 293 293 285 282 283 280 282 284 291 292 293 294 293 293 295 296 296 296 296 296 296 295 295 295 295 296 296 296 295 295 296 297 296 296 296 295 295
299 300 300 301 301 302 303 303 304 304 300 295 291 290 290 292 295 302 302 302 302 301 291 288 283 283 284 286 293 298 299 300 302 298 292 296 296 296 296 296 292 295 291 287 287 284 287 286 284 289 290 293 288 282 281 280 281 283 290 291 293 294 295 295 295 296 297 297 296 294 292 292 295 294 293 296 295 295 295 295 296 296 297 296 296 295 294
299 300 300 301 301 302 303 304 304 303 300 301 303 304 303 304 304 304 304 300 300 292 292 286 283 284 284 286 294 297 299 294 293 293 291 293 296 292 289 292 291 289 296 288 285 285 288 284 282 285 291 289 283 283 281 281 285 290 291 293 293 295 295 295 296 296 296 297 297 292 290 292 293 295 295 295 295 295 295 295 295 296 295 294 293 292 291
299 300 300 301 301 303 304 304 304 304 302 300 295 298 305 307 305 305 300 300 297 294 289 286 284 284 285 288 290 290 295 289 290 288 285 289 293 289 289 288 288 287 290 287 287 286 287 284 286 285 283 286 281 283 282 285 289 291 292 293 294 294 295 295 295 295 294 294 294 295 295 295 295 296 295 295 294 295 296 296 295 295 294 293 291 291 291
299 299 300 301 302 303 304 304 299 297 293 295 297 298 303 309 305 306 305 300 289 285 286 286 286 283 282 281 281 284 295 289 288 287 285 288 292 292 288 285 283 283 287 290 284 284 284 287 287 283 285 282 281 282 280 287 290 291 292 292 293 294 294 293 293 294 294 294 295 295 295 295 294 294 294 294 294 294 294 294 294 293 291 290 290 290 290
299 300 301 302 303 304 300 301 296 296 294 294 297 304 307 307 307 302 299 303 296 288 286 283 285 283 282 280 280 284 293 289 289 290 290 285 285 291 287 283 283 287 289 285 285 282 284 290 284 283 279 280 281 281 286 290 290 291 292 293 294 295 293 293 294 295 295 295 295 295 295 295 294 293 293 294 293 293 292 291 291 291 289 288 289 289 290
299 300 302 303 301 297 294 291 298 299 298 301 303 306 306 307 304 305 302 302 303 301 291 283 286 284 285 283 280 284 288 283 284 284 283 283 284 283 283 281 283 283 282 281 282 283 289 290 284 280 281 281 282 287 290 291 291 292 292 293 293 294 294 294 295 295 294 294 294 294 294 293 292 291 291 291 291 290 289 289 289 289 288 288 288 289 289
299 301 298 296 292 286 285 288 297 301 304 303 304 299 291 295 288 284 288 289 290 300 289 291 286 286 288 286 283 288 290 284 284 283 282 284 283 283 282 282 283 282 279 280 285 290 282 281 281 280 282 287 288 291 292 293 293 293 294 294 294 294 295 294 295 295 293 292 292 292 292 291 290 290 290 289 289 289 289 289 289 289 289 289 289 289 289
298 295 294 294 290 285 286 294 301 303 300 301 299 290 285 286 285 285 284 287 286 288 285 290 285 287 287 285 282 288 290 286 283 280 282 285 283 280 282 281 283 282 280 280 282 286 281 281 279 278 282 288 290 292 294 295 295 296 296 296 297 297 296 295 295 295 294 294 294 294 293 291 289 289 290 289 289 289 288 288 288 289 289 289 288 289 289
290 288 285 286 286 288 296 298 300 298 297 290 287 286 284 284 284 281 282 284 283 283 284 284 285 286 289 286 285 284 288 287 283 283 280 282 286 282 282 282 283 280 277 275 280 284 280 278 280 278 280 283 287 291 293 295 295 295 296 296 297 297 297 297 296 295 294 293 293 292 292 291 291 290 290 290 290 289 288 288 288 288 288 288 288 289 288
287 286 285 283 288 291 293 295 296 296 290 284 285 284 282 281 282 284 283 281 280 282 285 285 287 288 288 288 285 284 287 293 288 286 281 281 285 284 280 280 283 279 276 277 281 282 279 277 279 279 282 285 288 291 292 293 294 294 295 296 297 297 297 297 296 294 294 292 292 292 292 292 291 291 291 291 290 289 288 288 288 288 288 287 287 288 288
288 287 289 291 292 293 294 293 291 286 285 286 282 280 281 281 282 284 282 280 280 281 283 286 284 286 288 289 288 288 285 291 288 282 283 282 283 282 279 280 281 276 275 278 281 281 278 275 276 277 280 287 290 291 292 292 293 294 295 297 297 297 297 296 295 294 294 293 292 292 292 291 290 291 291 290 290 289 289 288 288 287 288 288 288 288 288
297 296 295 292 292 289 289 286 285 284 281 280 277 278 280 281 280 280 280 282 284 284 284 292 291 289 291 291 289 289 286 290 287 285 282 280 282 281 278 278 278 277 279 281 280 278 276 275 275 277 285 289 291 291 292 293 293 294 295 296 297 297 297 297 296 296 295 294 293 292 292 292 292 291 292 291 290 289 289 289 288 288 288 288 288 289 289
292 293 291 289 288 287 285 280 285 284 281 281 279 277 278 279 280 280 280 279 281 283 285 288 286 289 285 285 286 283 285 287 286 283 282 281 282 277 277 277 278 279 281 279 278 276 275 276 279 282 289 290 292 291 292 292 292 293 294 295 295 296 296 296 296 295 294 294 294 293 293 292 291 291 292 291 291 290 289 289 289 289 289 289 289 289 290
286 285 287 284 282 284 282 274 283 281 277 279 282 279 279 276 275 276 280 282 286 284 286 288 288 288 283 285 286 286 285 283 283 282 280 281 278 279 278 277 279 279 277 275 275 276 278 278 282 286 289 290 291 292 292 292 293 293 293 292 292 293 294 295 293 293 293 293 293 293 292 291 291 291 291 291 291 291 290 289 289 289 290 290 289 289 289
284 285 283 279 276 278 280 277 279 278 281 283 281 280 280 280 279 281 285 287 287 288 286 287 288 288 285 286 285 285 283 282 281 280 282 280 277 277 279 281 279 275 274 274 273 273 274 279 283 288 291 292 292 292 292 293 293 293 293 292 292 292 292 292 291 292 293 293 293 292 291 291 291 291 291 291 291 291 291 291 291 291 291 290 289 289 288
285 286 286 283 279 280 282 278 277 280 282 282 282 284 285 286 286 287 286 289 288 289 289 288 289 288 286 284 285 285 284 283 280 281 280 278 278 279 282 279 275 273 273 271 270 271 275 279 284 289 292 292 293 293 293 293 293 293 294 293 292 292 291 291 291 291 291 292 291 291 291 291 291 291 291 291 291 291 291 291 291 291 291 290 290 289 288
283 286 286 278 275 279 280 280 281 281 283 286 285 286 287 287 286 287 289 289 289 290 290 289 287 287 286 284 285 282 282 281 281 281 281 282 280 277 273 273 272 274 274 273 270 272 276 280 287 289 292 293 294 293 293 292 292 293 293 293 292 291 291 291 290 291 291 291 290 291 291 291 291 291 291 291 290 290 291 291 291 291 292 291 290 289 288
286 284 281 280 282 283 281 280 281 281 282 283 284 285 286 286 285 287 289 288 289 290 291 291 285 285 284 283 283 283 283 282 279 279 281 278 276 272 271 271 270 270 271 275 274 275 280 287 289 290 292 294 294 294 293 293 293 293 293 293 291 291 291 291 291 291 290 291 291 291 291 291 292 292 291 291 290 290 291 291 292 292 292 291 290 289 288
284 282 284 283 281 282 283 282 282 280 280 283 284 284 285 284 286 288 289 289 289 289 288 287 286 285 284 283 281 280 281 281 280 281 278 276 274 276 275 271 271 272 271 275 278 278 284 289 290 291 292 293 293 293 292 292 292 293 293 292 291 291 292 291 291 290 291 291 291 292 291 291 291 291 291 291 291 292 291 291 292 292 292 292 291 290 289
284 284 282 283 283 280 281 278 277 279 282 283 283 285 284 285 287 289 291 291 290 288 286 285 283 282 282 280 279 278 279 283 281 278 277 276 278 275 273 272 270 274 278 279 282 285 289 291 292 291 291 292 292 292 293 293 292 292 293 292 292 292 292 291 291 291 290 291 291 289 291 291 292 293 293 293 292 292 291 290 291 292 292 291 291 291 290
282 281 280 281 282 282 283 282 282 283 283 285 285 285 286 286 288 291 294 293 288 286 284 283 283 281 278 278 278 281 283 281 279 279 279 279 279 277 274 275 279 280 281 282 286 288 289 292 293 292 292 292 292 292 292 293 293 292 292 292 292 292 291 291 291 291 291 291 291 292 292 291 292 293 292 292 292 291 290 290 290 292 292 292 291 291 291
Wind_Speed
18 18 18 16 17 17 16 16 16 14 13 2 3 3 2 1 0 2 2 4 9 1 1 1 2 3 3 4 8 8 8 8 9 12 10 8 8 2 2 4 1 2 2 2 2 0 0 6 5 4 7 9 15 6 15 11 11 6 3 6 4 7 2 2 3 3 4 4 6 0 7 8 3 0 3 5 3 5 7 5 5 7 4 3 1 3 1
17 18 17 16 17 17 16 16 16 14 14 5 4 2 2 2 2 2 0 3 3 2 1 0 2 4 7 8 10 8 8 9 11 9 9 4 5 3 2 2 1 3 1 2 2 1 1 0 7 5 4 6 15 10 11 14 10 8 6 7 5 3 2 6 2 0 2 4 5 3 3 1 2 3 3 4 4 3 1 4 2 5 6 9 9 5 4
17 17 17 17 17 16 17 16 14 14 14 10 3 3 2 1 1 1 2 3 3 3 1 3 1 2 5 5 8 8 6 5 9 9 11 8 8 5 1 1 2 2 1 3 4 0 1 1 1 2 3 4 7 16 10 17 10 9 8 8 7 3 2 5 3 6 5 5 6 6 4 6 2 1 4 5 7 5 2 3 2 5 1 4 5 4 1
17 17 17 16 16 17 16 14 13 13 13 12 3 2 1 2 2 3 2 1 2 3 2 3 4 7 7 5 7 6 5 5 8 8 10 12 9 3 2 2 4 2 3 3 1 2 2 1 1 2 2 2 5 11 13 15 11 9 14 9 8 3 2 3 5 6 6 7 4 3 4 3 5 5 6 3 4 6 5 5 3 6 4 4 2 12 13
18 18 17 17 15 16 16 14 13 13 13 12 4 3 1 1 2 1 2 2 3 6 3 5 4 4 2 2 3 5 8 6 6 2 2 2 3 3 1 2 1 2 2 2 2 2 2 4 2 5 3 6 2 9 14 13 16 14 11 12 6 3 3 4 8 3 6 5 1 1 3 2 2 4 6 4 6 4 7 7 7 6 10 1 0 18 19
18 18 17 17 17 16 16 15 15 15 15 14 1 1 1 1 1 1 2 1 3 4 7 9 10 10 6 6 4 9 9 3 2 5 3 6 1 3 5 3 3 3 3 2 1 5 2 3 3 5 2 4 4 6 5 6 13 12 6 12 5 7 5 6 7 4 5 1 3 4 5 4 3 3 2 7 4 6 5 5 5 12 7 8 12 15 20
19 18 17 16 17 16 16 16 16 16 17 10 3 1 2 1 1 2 1 0 3 5 6 4 7 9 9 4 4 4 3 4 2 2 5 6 4 2 0 3 7 10 8 2 0 2 3 4 2 2 5 4 4 5 6 7 8 4 5 6 4 6 2 2 8 6 8 5 2 7 12 4 10 10 9 4 6 4 7 4 2 3 4 14 21 9 7
18 18 17 17 19 18 16 16 15 16 19 6 1 1 1 2 3 2 2 4 5 5 3 3 1 2 3 1 3 2 2 2 6 3 3 3 4 4 2 6 9 9 5 3 3 1 2 2 1 2 1 4 6 1 2 4 5 5 4 4 2 8 2 6 4 5 3 5 4 8 12 12 8 9 10 9 7 11 6 7 10 19 14 16 16 17 11
19 18 18 18 18 17 17 16 14 13 13 3 3 2 1 3 3 2 4 5 4 2 2 3 3 2 3 1 4 2 2 1 2 4 2 3 3 2 3 5 8 5 3 2 1 1 2 2 2 2 2 5 2 2 4 2 3 4 3 2 1 7 2 2 4 6 2 4 6 5 13 14 12 7 10 9 6 9 1 6 2 9 13 16 16 13 6
19 18 18 18 19 18 17 16 13 11 9 2 2 2 3 3 3 3 2 3 3 2 3 3 2 2 1 1 1 2 3 3 4 4 5 2 5 5 5 5 3 6 3 2 2 2 2 3 3 2 1 1 3 3 1 4 2 2 0 1 3 4 6 5 6 8 1 1 5 5 4 9 6 4 3 3 3 1 4 6 6 10 23 15 14 12 11
19 18 18 18 18 18 18 16 14 10 4 2 2 2 4 3 5 4 1 1 3 2 4 3 0 2 4 4 6 4 3 4 2 2 4 3 4 2 5 5 3 5 3 3 3 3 4 3 2 1 7 8 8 7 9 10 11 6 1 2 2 5 9 5 1 7 2 4 4 4 5 2 3 3 3 3 1 1 10 6 7 4 3 3 5 14 14
19 18 17 17 18 18 17 16 13 11 4 2 1 3 3 3 4 2 2 2 2 2 2 3 4 5 5 9 6 6 8 8 7 5 7 3 9 10 7 6 1 2 4 2 2 4 2 1 2 2 7 8 12 15 13 12 13 10 3 6 4 6 8 3 2 7 3 1 3 9 1 5 3 7 4 4 10 8 16 12 9 5 11 17 20 18 16
21 20 18 18 18 18 17 15 13 12 8 3 2 4 2 2 3 3 3 2 3 3 4 4 6 9 11 11 10 11 10 10 8 8 7 5 6 3 3 3 3 7 2 4 2 4 4 1 2 2 3 3 6 15 14 12 14 13 9 5 7 6 9 4 5 3 2 4 3 3 3 2 3 4 3 9 11 3 16 11 9 5 4 14 17 17 16
21 20 19 18 18 18 18 16 16 13 10 5 3 3 2 1 3 3 1 2 5 2 3 7 6 5 6 8 6 3 5 5 5 4 4 5 7 8 6 4 7 5 1 2 4 2 3 5 4 6 7 5 2 6 3 4 10 13 13 9 5 10 5 6 4 1 5 3 4 3 2 1 1 2 2 5 6 6 2 8 3 4 2 12 16 16 16
20 20 19 18 19 19 18 18 16 15 11 8 4 4 4 4 4 3 3 1 3 7 2 2 4 6 6 7 3 4 4 4 2 1 5 1 3 5 6 7 4 3 2 0 2 4 3 2 4 4 4 4 1 2 1 3 4 9 9 5 7 3 8 3 8 1 4 7 5 2 1 6 8 8 4 6 1 4 5 8 1 2 2 6 17 18 18
22 22 20 20 19 19 19 18 16 14 13 10 3 3 5 4 3 4 5 2 2 5 4 8 3 3 4 6 5 2 5 4 3 1 0 1 3 3 5 6 4 3 1 2 1 3 2 4 2 4 1 1 0 1 1 1 2 3 6 6 11 10 9 6 8 5 3 3 6 4 6 4 6 13 8 4 4 9 5 6 2 4 7 9 12 16 17
23 23 22 21 20 20 20 18 17 14 12 10 5 4 4 2 4 4 3 2 3 6 10 8 4 3 2 3 2 2 2 3 3 2 2 3 4 3 6 2 3 1 1 2 2 2 3 4 2 3 0 2 1 2 0 2 1 1 2 6 11 9 4 6 7 4 2 5 3 3 2 2 2 8 5 6 5 3 2 2 7 12 13 11 14 18 18
23 23 23 22 22 21 20 19 18 16 12 11 6 5 5 3 4 2 4 4 2 5 5 1 2 2 2 4 1 1 3 1 1 4 0 1 2 3 4 2 1 2 2 2 0 4 2 2 3 2 2 0 0 2 1 2 2 2 1 0 1 4 3 5 7 5 5 6 0 1 3 2 2 6 5 6 5 4 3 9 4 13 15 14 15 16 15
23 22 23 23 22 22 21 21 19 18 14 11 6 6 6 5 5 5 4 3 2 5 9 5 7 6 6 4 5 4 5 5 2 2 4 3 1 3 2 3 2 1 5 2 3 2 2 0 0 2 4 1 0 3 1 2 3 1 2 4 3 1 3 1 3 5 6 3 5 4 3 4 4 4 8 7 4 4 8 4 3 17 16 14 15 16 14
23 23 23 23 23 22 22 22 21 19 15 13 7 5 9 6 5 6 5 3 3 7 13 11 2 6 4 5 2 2 1 1 1 2 1 1 2 1 2 2 4 3 2 3 2 0 3 3 2 1 2 2 2 4 3 1 1 1 1 1 4 5 4 3 4 2 3 2 3 2 1 2 7 8 3 2 3 4 4 6 7 12 17 18 14 14 13
23 23 23 23 23 23 23 22 21 19 16 14 7 5 7 3 4 6 7 6 3 6 9 4 3 11 7 7 7 7 3 2 4 2 3 4 3 1 0 1 3 1 1 1 3 1 2 1 1 1 2 4 1 1 5 3 2 1 1 1 1 2 5 1 1 3 5 3 4 5 4 3 3 8 7 4 2 6 9 12 11 8 13 14 13 11 11
23 23 23 23 22 22 22 21 21 20 18 16 11 3 5 5 4 4 5 6 5 5 7 13 10 13 14 12 10 10 5 8 13 11 4 1 2 2 1 2 1 1 1 2 2 1 1 1 1 1 2 1 2 2 3 4 4 1 2 3 2 3 2 5 6 1 1 3 3 2 2 1 2 3 2 2 4 9 9 12 17 16 10 10 11 13 11
24 24 24 24 23 23 23 21 21 19 18 17 9 2 5 6 5 4 2 4 5 6 7 9 9 8 8 6 6 7 2 4 10 5 4 4 1 2 1 2 3 1 1 1 3 4 3 4 1 4 2 1 6 4 3 1 2 1 1 2 1 3 2 1 6 2 3 4 2 0 3 5 8 6 5 11 8 5 9 13 12 7 12 12 12 12 13
24 25 25 25 24 23 23 22 21 19 17 14 8 6 7 5 6 5 2 2 1 7 7 2 3 6 6 6 8 4 3 2 4 4 2 4 2 1 2 2 2 2 1 3 4 2 3 2 2 1 2 1 4 4 5 1 1 3 3 2 2 1 0 2 5 4 3 1 2 4 4 4 8 10 7 7 6 8 9 10 10 13 12 12 11 11 14
25 25 25 26 26 25 24 23 23 20 16 14 10 6 7 7 5 5 2 1 2 1 1 8 6 7 5 8 4 2 3 1 0 2 1 2 5 3 2 2 2 1 4 4 1 4 1 2 0 1 3 2 4 1 1 5 1 2 4 0 1 1 2 8 3 4 3 3 2 3 5 4 4 8 11 9 10 9 8 10 10 12 11 12 14 14 13
25 25 25 25 26 25 24 24 24 21 17 14 11 5 4 5 1 4 2 2 2 1 2 4 8 9 6 9 5 4 3 7 7 5 0 0 1 2 3 2 2 2 1 2 2 5 4 4 2 1 5 1 1 3 1 1 5 2 6 6 5 3 2 4 2 5 5 6 4 6 8 8 5 5 5 7 10 12 12 13 14 14 15 14 13 12 13
26 26 26 25 25 26 25 25 25 22 21 18 10 4 7 5 5 5 4 3 1 2 2 3 6 9 7 9 6 4 3 4 6 7 7 8 6 5 4 3 2 2 2 1 2 4 4 3 4 2 1 1 2 2 3 4 3 3 2 0 1 6 3 5 10 9 8 8 11 13 11 5 3 4 8 10 9 14 15 14 14 15 15 15 16 14 12
26 26 26 25 26 26 25 25 23 23 21 22 11 5 6 5 6 9 7 5 0 2 3 4 6 10 8 3 5 4 5 4 4 5 6 6 8 7 6 4 3 3 3 3 5 6 4 6 3 1 1 1 5 3 2 2 4 4 3 1 1 4 6 8 8 10 9 5 9 0 7 9 6 9 9 11 11 14 16 16 15 14 13 14 16 15 14
26 27 26 26 25 25 25 24 22 20 22 17 10 4 2 6 6 5 2 1 4 1 1 4 5 4 2 3 4 3 4 4 5 5 5 6 7 6 5 5 4 1 3 5 3 3 3 1 1 3 1 1 6 2 3 3 2 1 2 4 2 2 6 4 6 7 5 8 5 7 11 10 8 10 12 11 11 13 14 13 14 14 14 14 14 14 15
26 26 26 26 25 25 24 23 20 19 16 9 5 3 2 2 2 4 2 0 4 2 0 2 3 3 4 2 4 3 2 3 5 5 6 5 5 5 4 4 5 3 4 3 3 4 0 2 2 2 3 2 2 1 3 1 2 1 3 3 1 6 4 1 2 8 8 6 6 6 10 10 9 10 10 9 10 13 13 13 14 14 13 13 14 14 13
25 25 26 26 26 25 24 23 20 17 11 4 2 2 3 2 2 2 3 4 2 2 1 1 4 4 5 3 1 4 1 1 2 2 4 3 2 3 2 3 4 4 5 5 5 1 2 4 1 3 2 4 4 2 3 3 1 1 3 3 3 6 4 4 4 7 14 10 9 8 10 10 9 10 9 10 10 12 12 10 12 13 14 13 14 13 12
26 26 25 26 26 25 25 23 20 14 4 1 1 2 4 4 2 4 3 2 2 2 1 2 3 3 2 3 2 1 1 0 0 1 2 2 2 4 5 5 1 2 3 2 0 3 3 0 2 2 3 4 5 3 2 3 3 1 1 4 4 5 7 9 9 7 10 13 15 12 10 7 10 11 9 12 11 11 13 12 11 13 15 12 10 9 9
26 26 26 25 26 25 24 22 21 13 7 10 13 16 20 23 22 17 2 0 2 2 2 1 2 2 1 4 4 4 1 2 3 2 1 2 0 2 2 4 4 4 3 5 3 2 1 1 1 5 4 2 3 2 3 2 0 0 2 4 5 7 8 7 8 8 9 9 12 14 12 10 8 10 11 11 11 11 12 12 12 12 11 12 11 10 8
27 27 28 26 25 25 23 21 22 18 10 3 4 2 4 11 8 4 3 1 1 1 1 1 1 1 4 5 2 5 2 1 1 1 1 3 0 2 1 3 4 3 4 4 1 3 2 4 3 0 4 4 2 5 2 1 0 4 5 5 8 9 9 9 9 9 5 4 4 8 9 8 9 10 10 11 11 10 10 9 12 13 12 11 10 10 11
28 28 27 27 25 22 21 15 6 1 1 3 3 5 2 2 5 7 6 0 1 2 2 2 0 1 3 4 0 3 0 3 1 0 3 2 1 1 1 3 4 5 2 2 5 1 1 1 2 5 0 2 4 1 1 4 3 5 6 7 6 10 9 9 5 6 5 6 8 7 9 10 12 10 10 10 10 10 12 11 11 13 12 9 10 12 12
28 29 26 25 24 13 5 0 2 0 1 2 4 8 18 20 13 3 5 3 2 1 0 2 0 1 2 1 0 2 1 0 1 0 0 0 3 2 3 2 4 1 0 4 0 3 2 1 2 1 2 2 2 3 5 6 8 7 7 9 8 10 8 9 6 6 7 7 8 8 10 9 10 8 8 9 9 10 11 12 11 11 11 12 12 11 11
29 28 27 20 7 1 1 2 1 3 1 7 16 21 24 14 1 4 2 1 1 1 2 1 1 4 5 4 1 4 3 1 2 1 4 2 1 2 2 2 1 1 4 3 2 3 1 1 6 2 3 0 2 2 5 6 7 8 7 7 3 4 8 7 7 9 10 8 9 9 9 10 8 6 8 9 8 10 11 12 13 15 15 14 12 12 12
29 24 7 2 1 1 1 2 1 8 16 19 12 4 4 5 0 2 2 0 2 1 1 1 3 4 1 1 2 2 1 2 1 2 1 0 1 1 0 2 1 2 0 0 1 3 2 4 2 2 1 1 1 3 5 5 4 4 5 5 5 5 7 7 8 11 10 10 9 10 9 9 9 8 11 10 11 12 11 9 10 12 12 12 11 11 11
15 5 3 3 1 1 1 2 9 21 14 6 1 0 2 0 1 1 2 1 1 1 2 3 5 3 1 0 3 3 3 1 2 2 1 2 2 2 1 2 2 3 0 1 3 3 2 2 1 1 0 0 3 2 2 5 4 4 4 4 6 6 6 6 7 10 11 10 11 10 9 13 14 12 10 11 10 10 9 10 10 12 12 12 11 11 12
5 8 4 4 1 3 6 7 14 11 2 0 1 2 1 1 2 2 1 1 1 2 1 1 4 4 5 3 2 1 1 2 2 1 1 1 0 1 1 2 1 2 1 1 3 1 5 2 0 2 2 2 3 3 4 6 6 3 3 4 5 6 7 7 6 5 5 4 5 7 8 8 8 10 11 11 11 12 11 10 10 10 12 12 12 12 12
4 3 4 2 5 5 7 10 8 1 0 1 1 1 1 1 2 1 0 0 0 2 2 2 1 1 2 2 2 0 3 1 1 3 3 1 2 2 2 0 1 1 0 0 1 2 2 2 1 3 7 6 5 5 4 5 5 4 4 5 5 6 8 9 8 6 7 7 6 8 9 9 10 10 11 11 11 10 10 10 10 11 11 12 13 12 9
3 3 5 6 8 8 7 3 0 1 0 0 2 1 1 2 1 2 1 2 2 1 3 1 1 0 1 1 1 2 1 1 1 1 1 0 1 1 1 0 1 1 1 3 1 2 2 1 2 2 4 5 5 4 5 5 4 5 4 5 6 7 9 10 8 6 9 9 7 8 8 10 10 10 10 11 11 11 10 10 11 11 12 10 10 9 9
17 13 6 5 3 1 1 1 1 1 1 0 2 1 1 0 2 3 1 1 1 1 3 1 0 0 2 2 1 0 2 0 0 1 1 1 1 1 1 1 1 1 1 0 1 1 0 1 3 6 5 7 7 6 6 7 5 5 5 5 6 8 9 10 8 7 9 10 9 9 10 11 11 9 10 11 11 10 9 9 11 10 9 8 9 9 9
4 2 2 1 1 3 1 1 1 1 1 0 2 2 1 1 3 0 0 2 1 1 3 2 2 1 3 1 2 1 1 2 2 2 0 0 1 0 1 0 1 3 0 1 0 1 3 2 6 6 8 6 6 6 6 5 6 5 5 5 5 6 8 8 7 9 9 9 10 10 10 11 9 8 9 10 13 13 10 10 9 10 9 9 9 9 9
1 1 0 0 1 2 1 2 1 1 2 2 2 2 2 4 4 2 4 4 1 3 4 3 1 3 3 3 1 1 1 1 1 2 1 0 1 0 1 0 1 1 1 1 1 1 1 1 1 4 8 8 8 7 6 6 6 8 6 4 5 6 7 7 7 8 10 9 9 11 10 10 10 9 10 10 10 11 11 10 9 10 10 11 10 9 8
1 0 0 2 3 2 1 1 0 1 2 2 2 5 3 5 3 3 6 2 3 6 8 6 3 1 1 1 4 2 0 2 1 1 0 2 2 0 1 0 1 0 1 1 0 2 4 5 6 9 10 10 9 8 7 7 6 6 8 7 6 6 6 7 7 9 10 10 9 10 10 9 10 9 9 10 9 10 11 10 9 11 10 11 11 11 8
1 1 1 0 0 3 0 1 2 2 1 1 3 4 5 6 7 6 3 1 3 6 6 5 5 6 4 2 0 2 1 1 1 1 2 1 0 1 1 1 1 0 1 1 2 2 3 5 6 7 9 9 9 8 8 7 6 7 8 7 6 6 6 7 8 10 9 10 9 9 9 9 9 9 9 9 9 10 11 10 10 12 12 12 11 10 9
0 2 0 1 3 1 2 4 2 3 2 3 4 2 3 1 3 7 5 2 4 3 6 2 2 0 0 2 3 2 1 0 1 1 1 1 1 2 1 1 1 1 1 2 3 4 5 4 8 9 9 10 11 10 8 8 8 9 8 8 8 7 7 9 9 10 10 11 10 9 8 9 10 10 11 11 10 9 10 10 11 11 11 10 10 10 10
1 0 0 1 1 1 2 3 6 5 7 6 5 4 4 5 6 7 7 3 5 7 9 2 1 3 1 0 2 1 1 0 2 2 1 2 1 2 1 1 0 1 4 4 4 5 6 7 8 9 11 11 10 9 9 8 9 10 10 10 9 9 9 10 10 10 9 10 9 9 9 9 10 10 10 11 10 10 9 10 12 10 11 12 12 11 11
1 1 1 0 2 4 5 3 1 4 6 8 7 7 7 7 7 8 3 3 4 4 2 2 2 2 1 1 0 0 1 0 2 0 2 0 1 1 1 1 3 3 2 3 3 5 4 7 8 10 12 12 11 10 9 8 8 9 8 8 8 9 10 12 11 10 10 9 9 9 9 9 10 10 11 13 11 10 8 8 10 11 10 12 12 11 12
1 1 3 3 4 4 2 2 1 5 8 7 7 8 5 7 6 9 6 5 5 0 1 4 2 2 1 1 1 0 2 1 3 2 3 2 1 2 3 3 4 6 6 6 6 4 7 8 10 10 11 12 11 10 10 9 9 9 9 9 9 10 10 11 12 10 8 9 9 10 10 9 9 10 10 10 10 10 9 7 9 11 11 10 10 12 11
0 0 2 3 2 2 4 5 3 6 8 8 6 4 2 7 7 9 8 9 3 4 5 1 2 1 1 1 3 2 0 1 0 0 0 2 2 2 3 6 7 7 7 6 3 3 6 7 9 12 13 12 11 11 10 9 9 8 9 10 10 11 10 10 11 10 9 8 8 9 8 8 8 9 8 10 11 10 10 8 6 9 10 10 9 10 11
Wind_Direction
353 355 354 357 356 354 355 1 7 5 359 8 334 280 319 40 190 263 180 187 163 172 35 167 204 244 250 290 280 272 268 263 277 285 298 316 279 196 221 237 248 294 23 311 321 38 235 181 189 185 187 205 210 200 198 195 197 161 184 164 211 95 97 105 263 298 290 313 329 125 143 130 103 128 108 101 164 189 171 160 183 124 153 81 19 81 235
354 354 354 353 355 357 357 0 0 1 10 350 318 274 348 6 15 17 68 88 127 241 99 209 244 260 275 276 273 269 266 271 278 278 285 281 309 279 213 300 131 246 263 273 262 210 58 21 174 224 194 216 216 220 201 187 204 175 203 166 201 173 265 134 158 8 340 347 343 357 352 129 142 176 196 159 124 107 197 115 118 122 210 171 133 180 218
354 357 356 353 354 357 357 357 354 359 359 360 317 342 323 272 253 43 328 17 66 211 299 334 323 297 299 301 290 289 275 243 262 269 273 261 250 262 286 264 258 283 255 248 268 305 157 213 272 184 217 243 207 207 200 191 205 191 177 168 152 119 198 110 142 164 168 191 188 207 245 218 259 169 136 159 166 152 112 189 153 146 227 127 118 116 93
355 358 358 356 356 355 355 353 351 352 347 349 321 300 336 353 75 324 8 26 32 293 289 294 299 303 299 304 277 264 260 265 246 260 271 258 256 236 230 263 245 266 350 340 334 353 334 105 303 30 329 289 203 193 190 189 202 180 169 154 126 146 168 119 147 154 197 204 214 233 128 126 185 208 166 172 165 165 138 117 107 172 185 91 219 144 135
355 359 0 0 358 354 351 350 346 342 334 342 328 299 175 325 104 160 175 36 244 263 272 258 228 240 215 251 297 275 298 302 307 215 277 328 4 314 137 230 4 296 26 324 327 312 354 8 83 7 305 263 255 170 183 188 195 175 168 157 101 100 143 168 113 129 213 188 188 323 97 136 219 174 190 152 122 160 147 148 208 169 102 291 94 147 137
354 357 359 358 357 355 351 348 345 339 334 338 324 347 238 67 270 295 224 192 206 217 260 236 243 252 263 263 270 277 283 314 307 291 263 308 346 53 325 10 332 297 277 240 25 328 32 12 29 325 283 350 327 34 337 185 188 170 167 165 141 143 163 196 103 359 39 128 185 137 69 50 47 16 260 192 141 125 163 209 174 147 165 181 168 165 147
353 355 357 358 356 354 352 349 347 340 336 341 177 56 302 195 251 250 277 226 240 182 244 236 227 241 226 249 242 268 255 287 335 331 333 348 331 31 334 314 348 351 336 74 110 354 53 337 337 26 319 19 331 38 338 350 6 184 149 176 146 99 143 145 109 90 40 1 31 96 101 77 49 25 19 360 90 127 125 75 45 153 169 144 150 127 85
353 353 354 355 356 355 355 353 352 345 342 346 103 172 49 5 344 321 296 255 284 281 279 260 222 261 265 273 268 265 314 345 336 346 36 344 302 333 28 334 343 341 344 55 89 335 139 129 11 298 56 335 29 65 147 288 324 22 152 157 312 105 265 152 109 74 35 347 36 80 96 96 70 30 26 26 77 74 85 107 97 86 80 115 121 119 112
352 353 353 354 355 355 355 356 356 349 352 12 6 332 123 307 283 282 320 312 260 268 331 330 312 307 317 168 281 1 320 90 335 291 232 207 252 336 298 323 334 351 340 68 128 211 156 171 174 210 88 84 329 110 301 323 301 10 359 25 325 86 181 57 93 88 46 338 28 70 93 85 86 44 17 10 4 99 104 107 179 118 135 126 117 117 138
352 352 351 352 353 353 353 355 355 356 357 346 324 305 3 306 264 258 261 280 307 331 301 296 33 303 235 289 284 360 305 337 10 339 299 261 241 258 303 316 17 310 8 319 274 263 177 187 206 176 175 171 91 86 327 345 82 36 105 299 94 117 123 92 109 92 213 285 5 351 35 75 35 354 343 357 43 55 87 56 35 143 135 129 152 192 151
352 351 349 351 353 351 352 351 353 356 27 8 331 309 328 338 339 327 7 296 306 5 329 281 121 253 326 324 313 303 288 319 325 168 278 326 300 29 9 349 352 280 267 249 239 213 189 179 182 111 76 91 59 44 31 18 37 30 326 65 346 102 116 118 132 108 225 318 343 25 54 66 203 283 291 220 126 270 106 71 79 67 26 185 133 131 132
350 350 349 350 350 351 351 350 350 347 357 270 268 276 248 286 301 281 43 320 278 338 320 281 265 282 293 285 287 286 289 282 270 239 250 268 286 307 311 295 168 301 245 255 343 359 352 359 115 135 92 65 56 44 28 24 19 9 15 130 123 101 92 73 80 100 148 248 81 63 70 233 288 340 336 104 85 92 93 70 45 53 103 106 113 124 134
349 348 348 349 349 349 350 349 346 344 345 296 266 293 282 334 291 261 237 234 289 321 339 298 270 262 264 269 266 260 249 250 246 247 249 249 280 288 236 228 186 234 274 341 35 47 66 314 339 57 39 50 68 59 18 16 11 6 16 23 116 119 104 129 50 96 80 57 60 148 222 295 356 351 51 94 99 123 87 51 20 0 130 132 128 133 131
348 347 346 347 348 349 349 347 345 344 337 330 273 249 266 269 276 293 307 360 292 233 238 288 282 291 310 313 323 350 317 278 262 227 230 223 228 254 269 230 240 250 296 101 65 70 41 32 34 18 346 10 2 45 303 358 17 11 357 6 27 116 95 93 85 15 123 129 75 89 97 43 348 73 245 182 152 201 189 138 262 325 212 144 133 132 129
346 345 344 344 347 347 347 347 345 343 338 330 304 284 256 241 236 262 321 282 291 293 249 240 284 296 315 327 48 335 324 314 13 195 212 193 210 223 225 253 271 315 30 55 358 43 127 86 42 37 339 40 116 221 302 15 342 345 340 13 45 354 116 217 106 327 115 123 105 90 200 211 217 234 231 236 227 134 134 97 154 279 263 179 144 143 137
345 344 342 344 344 346 347 347 346 341 335 337 290 283 263 242 229 253 263 271 307 303 254 214 268 310 314 317 324 326 311 340 318 248 170 294 238 290 256 255 291 312 242 73 100 89 57 91 147 90 240 193 192 65 340 350 10 303 338 12 61 44 69 102 107 144 87 91 133 187 180 241 181 205 217 198 163 142 155 79 200 212 182 180 152 144 147
343 342 341 341 343 343 345 347 346 345 333 336 319 285 277 195 203 225 248 244 214 249 275 292 292 255 275 287 271 226 256 348 0 26 14 332 319 315 299 298 303 49 86 72 12 63 45 60 90 125 276 269 74 180 50 66 79 345 317 7 47 51 10 54 70 108 138 136 108 184 207 207 244 187 189 175 146 162 79 176 237 174 179 168 158 153 153
339 340 340 340 341 340 341 344 345 345 338 330 316 304 274 261 227 270 259 239 278 281 266 236 145 315 248 187 214 200 139 212 191 288 96 245 310 305 280 339 15 338 101 88 33 66 78 106 131 154 127 285 54 82 173 180 120 201 192 114 69 35 26 38 142 144 120 107 176 357 312 285 213 190 182 154 162 97 130 194 242 165 161 161 159 158 156
337 337 337 338 338 338 337 339 342 343 342 338 325 290 248 237 224 197 260 267 246 271 265 270 282 258 254 240 248 205 200 186 174 72 321 4 244 213 217 268 109 313 354 133 61 100 116 280 79 123 126 273 90 161 139 101 219 200 144 90 51 20 109 46 68 106 136 155 117 206 234 235 170 180 163 174 143 182 212 238 164 148 155 154 156 154 158
336 336 335 335 335 335 335 335 338 341 342 343 334 282 277 266 244 204 215 238 222 260 287 285 236 257 289 277 302 308 300 39 150 123 159 160 272 55 27 29 329 85 352 62 55 189 106 180 215 128 67 158 223 161 68 223 240 162 221 212 126 194 106 161 144 174 66 57 84 43 223 236 149 142 91 204 148 230 188 115 120 146 148 149 155 156 158
334 333 333 332 332 332 333 334 334 336 339 340 341 315 313 280 202 216 217 234 300 310 299 241 250 294 291 271 257 256 201 160 100 22 251 201 230 95 71 188 221 119 206 133 147 244 147 144 211 159 201 131 208 78 166 140 23 280 165 208 132 216 101 161 255 186 144 150 160 197 226 208 161 153 179 196 200 151 141 129 121 139 147 147 147 153 150
332 332 331 330 330 331 331 331 332 331 334 336 339 278 261 263 292 276 214 193 231 216 237 293 306 287 274 264 261 253 221 139 149 164 166 254 302 159 221 298 223 159 198 129 57 34 7 187 77 103 135 99 22 128 167 87 160 243 1 72 96 244 160 183 154 200 134 193 213 277 318 283 348 114 144 97 121 136 145 140 147 147 155 144 143 146 134
331 330 329 329 328 328 329 328 328 327 330 331 335 197 259 297 299 315 293 213 240 261 273 280 290 277 265 253 215 215 232 149 153 156 159 120 34 330 213 305 342 305 114 113 170 160 192 130 190 164 92 162 148 115 56 115 184 306 104 317 151 20 106 116 83 115 140 64 59 42 30 62 65 54 102 122 116 100 123 128 128 138 138 147 145 139 135
330 329 327 328 326 326 325 323 323 325 322 321 316 283 287 256 268 311 283 218 241 306 305 233 17 337 354 5 339 2 46 48 197 204 179 134 108 327 326 283 216 15 338 242 177 134 197 124 192 146 118 223 92 102 131 116 216 191 85 5 351 244 207 59 111 168 66 360 333 56 82 80 94 94 67 71 91 121 124 120 124 134 137 133 134 136 139
330 328 328 326 326 324 323 323 322 322 317 315 310 266 264 285 243 201 168 61 309 95 253 306 316 239 337 317 315 353 2 329 20 140 79 77 128 143 186 244 180 167 260 267 76 71 48 110 68 71 118 259 105 142 221 108 145 140 79 231 87 342 139 79 75 74 103 167 138 93 76 73 90 112 117 110 111 107 106 114 121 124 124 125 129 131 132
329 328 327 325 324 323 322 322 322 319 319 315 313 277 252 242 272 162 247 282 218 158 264 308 285 306 350 359 336 286 306 19 21 19 10 190 174 198 230 340 33 24 238 24 84 122 136 75 85 113 113 232 102 137 138 214 146 113 126 202 202 166 69 144 181 104 82 81 96 107 80 64 60 75 79 110 124 118 115 119 123 126 127 129 129 135 142
327 327 325 324 322 322 321 321 322 320 322 320 317 243 233 247 221 204 196 213 34 351 27 270 272 299 350 330 285 318 341 32 22 31 15 8 26 21 61 63 113 24 83 23 26 116 73 94 93 54 108 160 114 116 114 52 76 95 77 317 62 70 86 133 108 121 168 177 178 148 130 160 138 114 120 113 111 116 120 122 126 131 135 137 137 139 141
326 324 324 322 321 320 319 319 320 321 325 322 308 269 206 219 219 204 233 205 133 205 242 273 303 296 307 279 279 321 322 35 58 47 33 21 28 37 44 51 73 59 8 65 18 19 33 66 63 257 74 338 58 39 19 102 54 42 28 303 154 127 173 155 162 164 191 169 165 182 95 107 135 133 125 121 121 122 127 133 134 134 136 136 137 138 138
325 323 321 320 318 318 316 316 316 322 327 328 310 309 149 231 252 247 238 222 101 116 216 265 299 336 351 288 302 349 325 37 41 34 45 26 30 28 42 49 56 110 81 71 101 103 92 104 178 83 33 203 94 133 35 53 56 103 255 283 271 232 171 168 126 72 47 121 130 139 131 138 143 135 130 130 132 127 125 129 132 136 139 140 138 142 143
324 321 319 317 316 314 313 313 314 320 331 328 335 28 27 328 215 194 248 332 109 117 60 349 354 263 293 324 300 309 306 9 31 36 33 30 23 22 24 37 19 38 86 112 129 76 269 99 326 331 358 34 111 160 75 176 86 260 293 316 79 85 77 53 151 141 149 146 130 120 113 111 118 127 126 127 132 128 131 136 138 137 139 141 140 143 148
321 319 317 315 312 311 309 309 309 316 337 333 11 43 40 7 288 180 114 42 81 114 172 138 238 277 335 264 299 289 302 30 49 26 341 344 354 4 330 77 29 66 45 8 43 56 79 19 25 330 332 50 104 88 158 115 111 319 310 335 125 107 96 91 69 110 122 123 114 106 103 117 120 110 117 128 130 129 128 133 135 135 139 142 145 145 144
320 317 315 312 309 307 305 303 303 314 301 191 157 171 178 191 216 200 345 3 122 80 115 340 335 345 265 311 287 266 119 270 63 41 341 19 356 8 9 67 74 38 114 108 177 46 31 285 93 343 39 342 69 95 71 82 114 210 354 61 75 99 109 104 102 107 115 123 116 102 106 122 139 138 143 138 130 132 133 137 136 137 141 139 135 133 133
318 316 313 309 306 303 300 297 298 308 262 252 256 271 274 274 274 274 316 83 78 200 148 92 206 234 319 255 309 319 2 27 14 45 320 310 322 40 7 356 8 22 349 78 359 99 215 94 339 47 323 27 76 90 79 46 215 252 126 109 102 108 104 105 109 115 125 135 138 143 152 149 136 127 130 128 130 135 137 140 139 137 135 137 133 128 124
318 315 312 306 302 300 297 293 301 298 282 258 326 274 253 230 247 238 168 138 170 262 79 120 321 337 266 308 44 282 40 110 282 66 22 299 185 66 326 25 353 76 344 86 264 68 1 60 48 325 347 17 35 74 51 340 354 111 96 103 110 105 111 111 116 117 106 79 75 113 125 130 123 121 124 129 133 134 134 135 139 140 141 138 136 137 138
318 314 308 305 299 294 294 295 316 12 280 274 267 243 301 317 148 157 141 129 22 337 12 315 119 18 343 350 44 271 106 84 58 159 132 278 45 134 36 58 335 74 297 79 41 75 61 4 181 63 301 323 45 74 219 194 153 115 114 114 119 114 109 108 120 123 110 114 115 114 122 128 127 132 139 136 130 132 134 141 145 143 139 136 135 137 141
317 312 306 300 297 297 302 269 150 33 349 283 246 298 307 299 300 231 187 208 144 156 151 249 61 218 161 257 304 270 340 52 276 19 190 76 2 13 92 109 60 308 294 75 130 358 37 298 70 16 296 65 222 190 191 165 145 143 142 140 152 138 146 143 145 130 122 123 121 122 128 132 136 139 133 130 129 133 137 138 136 132 130 132 138 140 138
316 309 304 299 295 77 324 229 251 100 327 279 278 283 281 285 296 94 92 105 275 128 173 181 347 244 180 227 244 281 70 300 331 44 342 55 197 284 56 44 102 321 38 7 17 71 325 44 95 65 11 127 264 198 152 157 143 145 150 151 160 125 124 131 138 130 125 125 123 131 139 139 128 125 129 133 135 131 134 142 144 141 142 141 142 141 141
314 307 300 357 29 21 325 328 45 318 326 306 318 313 348 35 317 330 6 32 270 90 306 88 242 252 295 88 247 252 74 266 67 134 300 237 80 314 49 103 217 89 58 250 254 185 78 36 62 115 308 290 264 156 156 143 150 139 133 127 132 139 141 139 141 137 138 140 147 150 138 134 134 145 143 144 140 138 138 137 136 134 135 137 138 136 133
317 311 8 8 73 253 208 263 342 331 316 269 106 71 307 3 62 350 251 236 32 267 265 146 241 218 132 41 275 286 151 123 27 26 109 270 108 294 14 101 297 74 334 51 288 55 64 345 13 43 334 76 120 166 179 142 133 142 125 126 134 141 139 140 151 157 168 171 163 158 152 154 151 148 141 138 135 129 133 133 135 136 136 136 137 138 140
2 13 1 334 325 260 297 307 334 320 304 21 322 106 248 312 103 269 285 54 318 280 96 249 220 192 175 181 161 273 316 64 53 330 170 304 309 137 257 91 259 96 179 139 240 46 119 144 266 81 254 264 208 205 170 151 145 176 136 126 132 141 138 143 149 146 128 112 111 113 115 119 127 133 135 135 136 135 137 136 137 136 136 140 143 142 147
15 344 341 316 288 320 307 318 318 267 21 51 4 356 60 318 277 199 60 14 193 245 203 187 348 1 325 76 92 140 286 93 177 137 115 153 246 80 58 133 223 90 244 212 267 79 86 88 85 178 218 212 192 192 174 150 153 170 149 143 144 140 140 145 146 138 118 112 115 118 118 122 128 134 133 134 134 134 138 138 140 142 139 140 145 150 146
271 253 253 282 286 281 298 304 183 23 358 146 128 260 223 222 302 348 129 156 247 260 310 73 337 176 275 173 206 145 305 214 110 103 101 31 296 97 213 244 20 114 216 238 154 70 82 126 184 250 247 209 206 181 160 159 163 151 154 146 146 141 144 147 144 133 131 135 134 130 129 129 134 138 138 136 137 139 140 140 142 143 146 152 144 134 135
287 272 248 268 294 280 214 349 284 120 139 247 57 333 315 190 220 183 266 261 292 114 260 204 237 128 315 50 22 262 183 237 86 328 67 230 289 53 79 13 55 37 227 317 78 78 81 199 221 245 202 183 189 174 175 165 166 156 157 154 150 148 148 150 143 134 139 140 141 138 140 138 142 147 141 137 135 136 141 144 149 150 146 144 142 139 141
278 180 164 204 304 278 102 270 272 81 292 123 132 200 228 280 304 11 49 266 250 283 246 152 254 128 245 296 150 308 3 355 43 73 22 291 85 326 52 349 238 243 63 44 58 142 218 211 206 200 179 175 175 175 170 162 157 152 154 167 147 138 144 139 122 127 137 143 143 142 137 136 136 137 137 141 144 145 149 152 152 145 144 140 140 147 150
11 6 269 357 304 262 75 298 313 125 193 235 155 201 165 184 241 188 197 246 113 232 307 6 156 143 212 267 41 330 124 202 299 96 250 52 41 351 99 265 254 31 90 248 329 337 351 280 255 148 167 176 182 182 171 165 159 161 167 154 143 147 144 134 135 137 145 150 153 143 137 135 136 143 146 150 151 147 147 155 152 139 145 146 147 144 154
27 192 41 84 318 301 146 240 127 270 282 157 204 196 183 235 181 238 252 220 284 308 315 273 293 54 199 263 141 218 62 87 66 237 168 70 99 269 246 257 71 60 3 39 153 210 222 232 192 185 178 175 177 180 170 172 166 151 143 162 172 156 151 139 142 146 154 154 157 143 139 139 142 146 151 152 151 151 153 151 148 145 145 144 152 155 163
317 297 178 209 137 271 125 183 241 204 191 254 233 195 192 219 208 214 233 260 275 260 274 254 199 188 160 221 139 339 18 75 126 270 68 55 177 261 5 90 282 219 143 280 254 253 264 246 203 183 169 171 174 175 174 170 160 157 163 160 161 157 155 149 148 152 160 155 155 143 141 146 146 147 143 146 154 157 151 148 150 148 149 155 157 151 154
287 268 57 134 230 220 194 245 241 288 243 215 252 239 238 225 327 302 277 239 238 286 270 221 139 144 289 295 89 187 222 44 86 302 143 174 34 41 13 31 299 253 182 179 235 223 232 218 176 177 175 173 172 175 176 170 169 166 163 164 161 157 162 157 159 160 160 155 153 148 150 151 145 144 150 155 156 159 153 148 153 153 149 146 148 154 157
220 274 190 216 233 277 264 265 359 323 290 314 313 325 337 332 288 272 274 254 253 253 252 220 196 103 222 233 108 58 279 326 102 243 16 33 99 211 145 225 277 309 270 182 212 219 219 190 167 159 163 170 178 179 179 177 172 168 169 168 166 166 163 164 166 163 161 155 153 150 155 156 148 147 148 150 155 166 157 148 151 153 155 154 159 161 167
178 293 302 278 346 298 273 301 338 298 322 335 359 338 334 329 305 290 261 251 252 235 300 11 45 99 220 114 340 22 251 240 148 49 64 136 199 192 76 304 235 196 257 257 233 245 202 153 143 153 167 171 177 179 178 179 169 170 170 161 159 162 166 165 166 161 157 157 155 154 154 150 150 146 151 157 163 166 151 147 153 157 165 164 163 166 169
235 176 232 176 180 231 33 344 332 317 318 314 318 309 321 301 297 299 309 293 277 132 126 195 213 113 94 42 78 44 249 175 81 166 161 196 203 117 167 204 241 214 229 236 234 215 166 162 153 155 163 171 174 179 181 174 169 170 166 157 159 162 164 162 162 158 156 158 156 148 151 156 156 153 157 154 155 162 160 156 160 162 167 171 170 168 169
144 231 258 279 275 262 218 246 261 241 245 260 277 268 329 301 298 295 311 307 260 156 209 203 105 85 75 166 216 194 55 50 121 82 61 274 153 147 218 202 233 232 223 247 252 191 165 166 162 163 168 170 170 167 166 166 164 162 162 159 159 159 161 162 163 161 157 157 157 155 156 151 152 151 149 152 157 164 169 174 176 169 168 171 178 179 176